Plattsburgh, NY

8:36 AM EST on December 08, 2019 (GMT -0500)
Plattsburgh International

Weather History for KPBG - October, 2019

Change the Weather History Date:

Wednesday, October 16, 2019

  Actual Average Record
Temperature  
Mean Temperature 48 °F 47 °F  
Max Temperature 61 °F 57 °F 79 °F (1958)
Min Temperature 35 °F 38 °F 18 °F (1978)
Degree Days  
Heating Degree Days 17 18  
Month to date heating degree days 230 241  
Since 1 July heating degree days 422 476  
Cooling Degree Days 0 0  
Month to date cooling degree days 0 0  
Year to date cooling degree days 406 345  
Moisture  
Dew Point 41 °F    
Average Humidity 74    
Maximum Humidity 93    
Minimum Humidity 46    
Precipitation  
Precipitation 0.23 in - 0.59 in (2014)
Month to date precipitation 1.61 0.00  
Year to date precipitation 23.23  
Sea Level Pressure  
Sea Level Pressure 29.79 in    
Wind  
Wind Speed 5 mph ()    
Max Wind Speed 29 mph    
Max Gust Speed 38 mph    
Visibility 10.0 miles    
Events Rain    
T = Trace of Precipitation, MM = Missing Value Source: Averaged Metar Reports

Daily Weather History Graph

Daily Weather History Graph

Search for Another Location

Airport or City:

Astronomy

Oct. 16, 2019 Rise Set
Actual Time 7:10 AM EDT 6:08 PM EDT
Civil Twilight 6:40 AM EDT 6:37 PM EDT
Nautical Twilight 6:06 AM EDT 7:11 PM EDT
Astronomical Twilight 5:33 AM EDT 7:44 PM EDT
Moon 7:54 PM EDT (10/16) 9:42 AM EDT (10/16)
Length of Visible Light 11h 56m
Length of Day
10h 57m
Waning Gibbous, 93% of the Moon is Illuminated
Oct 16
Waning Gibbous
Oct 21
Last Quarter
Oct 27
New
Nov 4
First Quarter
Nov 12
Full

Hourly Weather History & Observations

Time (EDT) Temp. Windchill Dew Point Humidity Pressure Visibility Wind Dir Wind Speed Gust Speed Precip Events Conditions
12:53 AM 37.9 °F - 35.1 °F 89% 30.03 in 10.0 mi Calm Calm - N/A   Clear
1:53 AM 36.0 °F - 34.0 °F 93% 30.02 in 10.0 mi Calm Calm - N/A   Clear
2:53 AM 37.0 °F - 34.0 °F 89% 30.01 in 10.0 mi Calm Calm - N/A   Clear
3:53 AM 36.0 °F - 34.0 °F 93% 29.99 in 10.0 mi Calm Calm - N/A   Clear
4:53 AM 37.0 °F - 35.1 °F 93% 29.98 in 10.0 mi Calm Calm - N/A   Clear
5:53 AM 37.0 °F - 35.1 °F 93% 29.95 in 10.0 mi Calm Calm - N/A   Clear
6:53 AM 37.9 °F 34.4 °F 35.1 °F 89% 29.92 in 10.0 mi SSW 4.6 mph - N/A   Clear
7:53 AM 48.0 °F - 41.0 °F 77% 29.91 in 10.0 mi SSE 12.7 mph - N/A   Clear
8:53 AM 48.9 °F - 42.1 °F 77% 29.89 in 10.0 mi SSE 9.2 mph - N/A   Clear
9:53 AM 52.0 °F - 43.0 °F 71% 29.86 in 10.0 mi SSE 9.2 mph - N/A   Clear
10:53 AM 55.9 °F - 43.0 °F 62% 29.81 in 10.0 mi SSE 16.1 mph 23.0 mph N/A   Clear
11:53 AM 57.0 °F - 44.1 °F 62% 29.80 in 10.0 mi SE 16.1 mph 26.5 mph N/A   Clear
12:53 PM 59.0 °F - 39.9 °F 49% 29.77 in 10.0 mi SSE 23.0 mph 38.0 mph N/A   Clear
1:53 PM 61.0 °F - 39.9 °F 46% 29.75 in 10.0 mi South 15.0 mph 24.2 mph N/A   Mostly Cloudy
2:53 PM 61.0 °F - 41.0 °F 48% 29.73 in 10.0 mi South 17.3 mph - N/A   Clear
3:53 PM 61.0 °F - 42.1 °F 50% 29.72 in 10.0 mi South 11.5 mph 20.7 mph N/A   Overcast
4:53 PM 60.1 °F - 42.1 °F 51% 29.70 in 10.0 mi South 8.1 mph - N/A   Mostly Cloudy
5:53 PM 59.0 °F - 44.1 °F 58% 29.65 in 10.0 mi SE 8.1 mph - N/A   Overcast
6:53 PM 57.0 °F - 45.0 °F 64% 29.63 in 10.0 mi SE 8.1 mph - 0.00 in Rain Light Rain
7:53 PM 55.0 °F - 48.0 °F 77% 29.62 in 10.0 mi South 6.9 mph - 0.00 in Rain Light Rain
8:53 PM 53.1 °F - 46.9 °F 80% 29.60 in 10.0 mi SSE 10.4 mph - 0.01 in Rain Light Rain
9:53 PM 52.0 °F - 48.0 °F 86% 29.56 in 10.0 mi ESE 8.1 mph - 0.04 in Rain Light Rain
10:53 PM 51.1 °F - 48.0 °F 89% 29.53 in 9.0 mi ESE 4.6 mph - 0.03 in Rain Light Rain
11:53 PM 51.1 °F - 46.9 °F 86% 29.47 in 10.0 mi ENE 6.9 mph - 0.04 in Rain Light Rain